User: anonymous   Login
Location: Unspecified
(0.0000°N, 0.0000°E)
Time: 03:12:26
(UTC+00:00)
Language:

NOAA 18 - Orbit

View from above orbital plane
View from above orbital plane
View from above satellite
View from above satellite

Ground track
Ground track

The orbit data is extracted from the following two-line orbital elements,

1 28654U 05018A   17349.55442918 -.00000000  00000-0  25362-4 0  9994
2 28654  99.1673  16.0675 0013445 283.5850  76.3823 14.12360579647852
Epoch (UTC): 15 December 2017 13:18:22
Eccentricity: 0.0013445
inclination: 99.1673°
perigee height: 841 km
apogee height: 861 km
right ascension of ascending node: 16.0675°
argument of perigee: 283.5850°
revolutions per day: 14.12360579
mean anomaly at epoch: 76.3823°
orbit number at epoch: 64785

The dashed part of the orbit path shows where the satellite is in the earth's shadow,  

DLR